AirNav   ProFlight Series 2 Aviation Headset
 
 1510 users online  

43A Montgomery County Airport
Star, North Carolina, USA

GOING TO STAR?


FAA INFORMATION EFFECTIVE 18 JUNE 2020

Location

FAA Identifier: 43A
Lat/Long: 35-23-04.7560N 079-47-24.9435W
35-23.079267N 079-47.415725W
35.3846544,-79.7902621
(estimated)
Elevation: 632.4 ft. / 193 m (estimated)
Variation: 06W (1985)
Time zone: UTC -4 (UTC -5 during Standard Time)
Zip code: 27356

Airport Operations

Airport use: Open to the public
Activation date: 07/1965
Control tower: no
ARTCC: WASHINGTON CENTER
FSS: RALEIGH FLIGHT SERVICE STATION
NOTAMs facility: RDU (NOTAM-D service available)
Attendance: UNATTENDED
Wind indicator: lighted
Segmented circle: no
Lights: ACTVT MIRL RY 03/21 AND PAPI RY 3 AND PAPI RY 21 - CTAF.
Beacon: white-green (lighted land airport)
Operates sunset to sunrise.

Airport Communications

CTAF/UNICOM: 122.8
FAYETTEVILLE APPROACH: 127.8
FAYETTEVILLE DEPARTURE: 127.8
WX AWOS-3 at HBI (17 nm N): 119.275 (336-626-7933)
WX AWOS-3 at VUJ (18 nm W): 128.175 (704-986-2097)

Nearby radio navigation aids

VOR radial/distance  VOR name  Freq  Var
SDZr319/14.2SANDHILLS VORTAC111.8003W
LIBr202/27.0LIBERTY VORTAC113.0003W

 
NDB name  Hdg/Dist  Freq  Var  ID
MACKALL331/26.127806WHFF .... ..-. ..-.

Airport Services

Parking: tiedowns
Airframe service: NONE
Powerplant service: NONE
Bottled oxygen: NONE
Bulk oxygen: NONE

Runway Information

Runway 3/21

Dimensions: 4002 x 75 ft. / 1220 x 23 m
Surface: asphalt, in excellent condition
Weight bearing capacity: 
Single wheel: 20.0
Runway edge lights: medium intensity
RUNWAY 3  RUNWAY 21
Latitude: 35-22.772160N35-23.386303N
Longitude: 079-47.563150W079-47.268632W
Elevation: 572.6 ft.632.4 ft.
Traffic pattern: leftleft
Runway heading: 027 magnetic, 021 true207 magnetic, 201 true
Displaced threshold: no460 ft.
Markings: nonprecision, in good conditionnonprecision, in good condition
Visual slope indicator: 2-light PAPI on left (3.50 degrees glide path)2-light PAPI on left (4.00 degrees glide path)
Runway end identifier lights: nono
Touchdown point: yes, no lightsyes, no lights
Obstructions: 48 ft. trees, 1455 ft. from runway, 18 ft. right of centerline, 26:1 slope to clear30 ft. pole, 449 ft. from runway, 126 ft. left of centerline, 8:1 slope to clear
APCH RATIO 20:1 TO DSPLCD THR.

Airport Ownership and Management from official FAA records

Ownership: Publicly-owned
Owner: MONTGOMERY COUNTY
PO BOX 425
TROY, NC 27371
Phone 910-576-4221
Manager: KEVIN MCNEILL
PO BOX 425
TROY, NC 27371
Phone (910) 220-1218
MGR PHONE 910-220-1218.

Airport Operational Statistics

Aircraft based on the field: 12
Single engine airplanes: 11
Multi engine airplanes: 1
    
Aircraft operations: avg 92/week *
42% military
31% transient general aviation
27% local general aviation
* for 12-month period ending 11 May 2019

Additional Remarks

DEER OCCASIONALLY ON RY.
40 FT PLINE 350-750 FT FM THLD RY 21 ACROSS & L OF CNTRLN.
20-25 FT DEPRESSION 180 FT S OF RY 03 THLD ON CNTRLN.
RY 03 HAS UPHILL GRADE.
35-40 FT DROP-OFF 80 FT W OF RY 03 CNTRLN AND 30 FT DROP-OFF 300 FT FM RY 21 THLD ON CNTRLN AND 30 FT DROP-OFF 80 FT R OF RY 21 CNTRLN.
FOR CD CTC FAYETTEVILLE APCH AT 910-484-8012.

Instrument Procedures

NOTE: All procedures below are presented as PDF files. If you need a reader for these files, you should download the free Adobe Reader.

NOT FOR NAVIGATION. Please procure official charts for flight.
FAA instrument procedures published for use from 18 June 2020 at 0901Z to 16 July 2020 at 0900Z.

 
IAPs - Instrument Approach Procedures
RNAV (GPS) RWY 03   download (194KB)
RNAV (GPS) RWY 21   download (211KB)
NOTE: Special Take-Off Minimums/Departure Procedures apply   download

Other nearby airports with instrument procedures:

KHBI - Asheboro Regional Airport (17 nm N)
KVUJ - Stanly County Airport (18 nm W)
KSOP - Moore County Airport (22 nm SE)
KSCR - Siler City Municipal Airport (24 nm NE)
KHFF - Mackall Army Airfield (25 nm SE)
 
Loc | Ops | Rwys | IFR | FBO | Links
Com | Nav | Svcs | Stats | Notes
Area around 43A (Montgomery County Airport)
 
Road maps at: MapQuest Bing Google
 
Aerial photo
WARNING: Photo may not be current or correct
Aerial photo of 43A (Montgomery County Airport)
Photo courtesy of AirNav, LLC
Photo taken 09-Aug-2010
looking South.

Do you have a better or more recent aerial photo of Montgomery County Airport that you would like to share? If so, please send us your photo.

 
Sectional chart

 
Airport distance calculator
Flying to Montgomery County Airport? Find the distance to fly.

From to 43A

Sunrise and sunset
Times for 13-Jul-2020
 Local
(UTC-4)
 Zulu
(UTC)
Morning civil twilight05:4709:47
Sunrise06:1610:16
Sunset20:3400:34
Evening civil twilight21:0301:03

Current date and time
Zulu (UTC)  13-Jul-2020 19:10:09
Local (UTC-4)  13-Jul-2020 15:10:09
 
METAR
KHBI 
17nm N 
131855Z AUTO 33003KT 10SM SCT043 SCT100 31/20 A2990 RMK AO2 T03050196
KVUJ 
18nm W 
131855Z AUTO 05006KT 10SM SCT042 32/22 A2990 RMK AO2 LTG DSNT SE T03200223
KSOP 
22nm SE 
131856Z AUTO 00000KT 10SM CLR 28/22 A2986 RMK AO2 LTG DSNT E-SW TSE30RAE16 SLP112 T02830222 PNO $
KSCR 
24nm NE 
131855Z AUTO 00000KT 10SM BKN046 BKN050 BKN070 31/21 A2986 RMK AO2 T03090210
KAFP 
26nm SW 
131855Z AUTO 00000KT 10SM SCT075 30/22 A2984 RMK AO2 T03030219
KHFF 
26nm SE 
131856Z AUTO 05004KT 10SM SHRA FEW030 SCT060 SCT130 BKN220 29/23 A2984 RMK AO2 LTG DSNT NE-S SHRAE15SHRAB49 SLP117 T02910226 $
KRCZ 
30nm S 
131855Z AUTO 26016KT 4SM +RA SCT005 SCT013 OVC050 26/21 A2989 RMK AO2 P0012 T02560206
TAF
KPOB 
40nm E 
131700Z 1317/1423 22006KT 8000 -SHRA VCTS SCT040CB SCT080 QNH2985INS TEMPO 1317/1319 VRB15G25KT 4800 -TSRA BKN040CB BKN080 TEMPO 1319/1323 VRB25G35KT 3200 TSRA BKN030CB BECMG 1401/1402 29006KT 9999 NSW BKN035 OVC055 QNH2987INS BECMG 1408/1409 01006KT 6000 BR FEW025 FEW040 SCT055 QNH2991INS BECMG 1414/1415 02006KT 9999 NSW SCT050 QNH2997INS BECMG 1419/1420 06006KT 8000 -SHRA VCTS BKN050CB QNH2996INS TX33/1319Z TN22/1410Z
KGSO 
44nm N 
131720Z 1318/1418 VRB05KT P6SM VCSH SCT050 BKN080 FM132300 36003KT P6SM SCT080
KFBG 
46nm E 
131700Z 1317/1423 22006KT 8000 -SHRA VCTS SCT040CB SCT080 QNH2985INS TEMPO 1317/1319 VRB15G25KT 4800 -TSRA BKN040CB BKN080 TEMPO 1319/1323 VRB25G35KT 3200 TSRA BKN030CB BECMG 1401/1402 29006KT 9999 NSW BKN035 OVC055 QNH2987INS BECMG 1408/1409 01006KT 6000 BR FEW025 FEW040 SCT055 QNH2991INS BECMG 1414/1415 02006KT 9999 NSW SCT050 QNH2997INS BECMG 1419/1420 06006KT 8000 -SHRA VCTS BKN050CB QNH2996INS TX33/1319Z TN22/1410Z
KINT 
49nm NW 
131720Z 1318/1418 VRB05KT P6SM VCSH SCT050 BKN080 FM132300 36003KT P6SM SCT080
NOTAMs
Click for the latest NOTAMs
NOTAMs are issued by the DoD/FAA and will open in a separate window not controlled by AirNav.

 

 
 

FBO, Fuel Providers, and Aircraft Ground Support

  
 Business Name 
 
 Contact 
 
 Services / Description 
 
Fuel Prices
 
Comments
  
Montgomery County (FBO) 910-576-4221
[email]
Airport management, Aviation fuel, Aircraft parking (ramp or tiedown), Hangar leasing / sales, Passenger terminal and lounge, Pilots lounge / snooze room
 
Wireless Internet Access (WiFi)  
 
More info about Montgomery County (FBO)
Shell
100LL
SS $3.75 
 Updated 28-Apr-2020
 
   write
SS=Self service
Update Fuel Prices
 

Would you like to see your business listed on this page?

 If your business provides an interesting product or service to pilots, flight crews, aircraft, or users of the Montgomery County Airport, you should consider listing it here.  To start the listing process, click on the button below
 
Add a business
 

Other Pages about Montgomery County Airport

Update a link
 
Copyright © AirNav, LLC. All rights reserved. Privacy Policy  Contact